Radiation Dose at Monitoring Post of Fukushima Daini Nuclear Power Station
Date,Time,MP-1(microSv/h),MP-2(microSv/h),MP-3(microSv/h),MP-4(microSv/h),MP-5(microSv/h),MP-6(microSv/h),MP-7(microSv/h),Wind Direction,Wind Velocity(m/s),Rain
2013/06/06,00:00,0.9,0.7,1.0,0.9,0.8,0.4,0.3,north,3.0,No
2013/06/06,00:10,0.9,0.7,1.0,0.9,0.8,0.4,0.3,north-northeast,3.7,No
2013/06/06,00:20,0.9,0.7,1.0,0.9,0.8,0.4,0.3,north-northeast,2.3,No
2013/06/06,00:30,0.9,0.7,1.0,0.9,0.8,0.4,0.3,north-northeast,3.1,No
2013/06/06,00:40,0.9,0.7,1.0,0.9,0.8,0.4,0.3,north-northeast,2.4,No
2013/06/06,00:50,0.9,0.7,1.0,0.9,0.8,0.4,0.3,north-northeast,2.1,No
2013/06/06,01:00,0.9,0.7,1.0,0.9,0.8,0.4,0.3,north-northeast,1.8,No
2013/06/06,01:10,0.9,0.7,1.0,0.9,0.8,0.4,0.3,north-northeast,1.9,No
2013/06/06,01:20,0.9,0.7,1.0,0.9,0.8,0.4,0.3,north-northeast,1.9,No
2013/06/06,01:30,0.9,0.7,1.0,0.9,0.8,0.4,0.3,north-northeast,2.2,No
2013/06/06,01:40,0.9,0.7,1.0,0.9,0.8,0.4,0.3,north-northeast,1.6,No
2013/06/06,01:50,0.9,0.7,1.0,0.9,0.8,0.4,0.3,north,1.5,No
2013/06/06,02:00,0.9,0.7,1.0,0.9,0.8,0.4,0.3,north,2.2,No
2013/06/06,02:10,0.9,0.7,1.0,0.9,0.8,0.4,0.3,north,2.2,No
2013/06/06,02:20,0.9,0.7,1.0,0.9,0.8,0.4,0.3,north,1.3,No
2013/06/06,02:30,0.9,0.7,1.0,0.9,0.8,0.4,0.3,north,0.9,No
2013/06/06,02:40,0.9,0.7,1.0,0.9,0.8,0.4,0.3,north,0.7,No
2013/06/06,02:50,0.9,0.7,1.0,0.9,0.8,0.4,0.3,northeast,0.6,No
2013/06/06,03:00,0.9,0.7,1.0,0.9,0.8,0.4,0.3,east,0.9,No
2013/06/06,03:10,0.9,0.7,1.0,0.9,0.8,0.4,0.3,east-southeast,0.9,No
2013/06/06,03:20,0.9,0.7,1.0,0.9,0.8,0.4,0.3,east,0.9,No
2013/06/06,03:30,0.9,0.7,1.0,0.9,0.8,0.4,0.3,north-northeast,0.8,No
2013/06/06,03:40,0.9,0.7,1.0,0.9,0.8,0.4,0.3,east-northeast,1.0,No
2013/06/06,03:50,0.9,0.7,1.0,0.9,0.8,0.4,0.3,-,CALM,No
2013/06/06,04:00,0.9,0.7,1.0,0.9,0.8,0.4,0.3,east-northeast,0.7,No
2013/06/06,04:10,0.9,0.7,1.0,0.9,0.8,0.4,0.3,east-northeast,0.6,No
2013/06/06,04:20,0.9,0.7,1.0,0.9,0.8,0.4,0.3,-,CALM,No
2013/06/06,04:30,0.9,0.7,1.0,0.9,0.8,0.4,0.3,north,0.8,No
2013/06/06,04:40,0.9,0.7,1.0,0.9,0.8,0.4,0.3,north-northeast,1.0,No
2013/06/06,04:50,0.9,0.7,1.0,0.9,0.8,0.4,0.3,-,CALM,No
2013/06/06,05:00,0.9,0.7,1.0,0.9,0.8,0.4,0.3,-,CALM,No
2013/06/06,05:10,0.9,0.7,1.0,0.9,0.8,0.4,0.3,south-southeast,0.8,No
2013/06/06,05:20,0.9,0.7,1.0,0.9,0.8,0.4,0.3,-,CALM,No
2013/06/06,05:30,0.9,0.7,1.0,0.9,0.8,0.4,0.3,-,CALM,No
2013/06/06,05:40,0.9,0.7,1.0,0.9,0.8,0.4,0.3,-,CALM,No
2013/06/06,05:50,0.9,0.7,1.0,0.9,0.8,0.4,0.3,southwest,0.7,No
2013/06/06,06:00,0.9,0.7,1.0,0.9,0.8,0.4,0.3,-,CALM,No
2013/06/06,06:10,0.9,0.7,1.0,0.9,0.8,0.4,0.3,-,CALM,No
2013/06/06,06:20,0.9,0.7,1.0,0.9,0.8,0.4,0.3,-,CALM,No
2013/06/06,06:30,0.9,0.7,1.0,0.9,0.8,0.4,0.3,-,CALM,No
2013/06/06,06:40,0.9,0.7,1.0,0.9,0.8,0.4,0.3,east-northeast,0.5,No
2013/06/06,06:50,0.9,0.7,1.0,0.9,0.8,0.4,0.3,north-northeast,0.5,No
2013/06/06,07:00,0.9,0.7,1.0,0.9,0.8,0.4,0.3,northeast,0.9,No
2013/06/06,07:10,0.9,0.7,1.0,0.9,0.8,0.4,0.3,north-northeast,1.5,No
2013/06/06,07:20,0.9,0.7,1.0,0.9,0.8,0.4,0.3,northeast,1.4,No
2013/06/06,07:30,0.9,0.7,1.0,0.9,0.8,0.4,0.3,north-northeast,1.1,No
2013/06/06,07:40,0.9,0.7,1.0,0.9,0.8,0.4,0.3,north,0.8,No
2013/06/06,07:50,0.9,0.7,1.0,0.9,0.8,0.4,0.3,northeast,0.7,No
2013/06/06,08:00,0.9,0.7,1.0,0.9,0.8,0.4,0.3,-,CALM,No
2013/06/06,08:10,0.9,0.7,1.0,0.9,0.8,0.4,0.3,-,CALM,No
2013/06/06,08:20,0.9,0.7,1.0,0.9,0.8,0.4,0.3,-,CALM,No
2013/06/06,08:30,0.9,0.7,1.0,0.9,0.8,0.4,0.3,-,CALM,No
2013/06/06,08:40,0.9,0.7,1.0,0.9,0.8,0.4,0.3,-,CALM,No
2013/06/06,08:50,0.9,0.7,1.0,0.9,0.8,0.4,0.3,-,CALM,No
2013/06/06,09:00,0.9,0.7,1.0,0.9,0.8,0.4,0.3,northeast,0.8,No
2013/06/06,09:10,0.9,0.7,1.0,0.9,0.8,0.4,0.3,east,0.8,No
2013/06/06,09:20,0.9,0.7,1.0,0.9,0.8,0.4,0.3,east-southeast,0.9,No
2013/06/06,09:30,0.9,0.7,1.0,0.9,0.8,0.4,0.3,-,CALM,No
2013/06/06,09:40,0.9,0.7,1.0,0.9,0.8,0.4,0.3,east,0.5,No
2013/06/06,09:50,0.9,0.7,-,0.9,0.8,0.4,0.3,east-northeast,1.3,No
2013/06/06,10:00,0.9,0.7,-,0.9,0.8,0.4,0.3,-,CALM,No
2013/06/06,10:10,-,-,-,-,-,-,-,-,-,-
2013/06/06,10:20,0.9,0.7,-,0.9,0.8,0.4,0.3,east,0.8,No
2013/06/06,10:30,0.9,0.7,-,0.9,0.8,0.4,0.3,south-southeast,1.0,No
2013/06/06,10:40,0.9,0.7,-,0.9,0.8,0.4,0.3,south,2.1,No
2013/06/06,10:50,0.9,0.7,-,0.9,0.8,0.4,0.3,south,3.5,No
2013/06/06,11:00,1.0,0.7,-,0.9,0.8,0.4,0.3,south-southeast,3.3,No
2013/06/06,11:10,1.0,0.7,-,0.9,0.8,0.4,0.3,south-southeast,4.2,No
2013/06/06,11:20,0.9,0.7,-,0.9,0.8,0.4,0.3,south-southeast,4.4,No
2013/06/06,11:30,0.9,0.7,-,0.9,0.8,0.4,0.3,south,5.0,No
2013/06/06,11:40,0.9,0.7,-,0.9,0.8,0.4,0.3,south,6.7,No
2013/06/06,11:50,0.9,0.7,-,0.9,0.8,0.4,0.3,south-southwest,9.6,No
2013/06/06,12:00,0.9,0.7,-,0.9,0.8,0.4,0.3,south,9.2,No
2013/06/06,12:10,1.0,0.7,-,0.9,0.8,0.4,0.3,south,9.2,No
2013/06/06,12:20,1.0,0.7,-,0.9,0.8,0.4,0.3,south,9.8,No
2013/06/06,12:30,1.0,0.7,-,0.9,0.8,0.4,0.3,south,11.9,No
2013/06/06,12:40,1.0,0.7,-,0.9,0.8,0.4,0.3,south,12.1,No
2013/06/06,12:50,1.0,0.7,-,0.9,0.8,0.4,0.3,south,11.5,No
2013/06/06,13:00,1.0,0.7,-,0.9,0.8,0.4,0.3,south,10.9,No
2013/06/06,13:10,1.0,0.7,-,0.9,0.8,0.4,0.3,south,11.4,No
2013/06/06,13:20,1.0,0.7,-,0.9,0.8,0.4,0.3,south,11.6,No
2013/06/06,13:30,1.0,0.7,-,0.9,0.8,0.4,0.3,south,13.0,No
2013/06/06,13:40,1.0,0.7,-,0.9,0.8,0.4,0.3,south,10.7,No
2013/06/06,13:50,1.0,0.7,-,0.9,0.8,0.4,0.3,south,12.0,No
2013/06/06,14:00,1.0,0.7,-,0.9,0.8,0.4,0.3,south,11.8,No
2013/06/06,14:10,1.0,0.7,-,0.9,0.8,0.4,0.3,south,10.5,No
2013/06/06,14:20,1.0,0.7,-,0.9,0.8,0.4,0.3,south,11.0,No
2013/06/06,14:30,1.0,0.7,-,0.9,0.8,0.4,0.3,south-southwest,11.2,No
2013/06/06,14:40,1.0,0.7,-,0.9,0.8,0.4,0.3,south,12.4,No
2013/06/06,14:50,1.0,0.7,-,0.9,0.8,0.4,0.3,south,10.4,No
2013/06/06,15:00,1.0,0.7,-,0.9,0.8,0.4,0.3,south-southwest,9.4,No
2013/06/06,15:10,1.0,0.7,-,0.9,0.8,0.4,0.3,south,9.5,No
2013/06/06,15:20,1.0,0.7,-,0.9,0.8,0.4,0.3,south,9.8,No
2013/06/06,15:30,1.0,0.7,-,0.9,0.8,0.4,0.3,south-southwest,10.4,No
2013/06/06,15:40,1.0,0.7,-,0.9,0.8,0.4,0.3,south-southwest,10.2,No
2013/06/06,15:50,1.0,0.7,-,0.9,0.8,0.4,0.3,south-southwest,10.1,No
2013/06/06,16:00,1.0,0.7,-,0.9,0.8,0.4,0.3,south-southwest,9.8,No
2013/06/06,16:10,1.0,0.7,1.0,0.9,0.8,0.4,0.3,south-southwest,8.9,No
2013/06/06,16:20,1.0,0.7,1.0,0.9,0.8,0.4,0.3,south-southwest,8.4,No
2013/06/06,16:30,1.0,0.7,1.0,0.9,0.8,0.4,0.3,south-southwest,9.3,No
2013/06/06,16:40,1.0,0.7,1.0,0.9,0.8,0.4,0.3,south,11.3,No
2013/06/06,16:50,1.0,0.7,1.0,0.9,0.8,0.4,0.3,south-southwest,9.8,No
2013/06/06,17:00,1.0,0.7,1.0,0.9,0.8,0.4,0.3,south-southwest,11.5,No
2013/06/06,17:10,1.0,0.7,1.0,0.9,0.8,0.4,0.3,south-southwest,8.0,No
2013/06/06,17:20,1.0,0.7,1.0,0.9,0.8,0.4,0.3,south-southwest,8.1,No
2013/06/06,17:30,1.0,0.7,1.0,0.9,0.8,0.4,0.3,south,8.2,No
2013/06/06,17:40,1.0,0.7,1.0,0.9,0.8,0.4,0.3,south-southwest,9.1,No
2013/06/06,17:50,1.0,0.7,1.0,0.9,0.8,0.4,0.3,south-southwest,7.9,No
2013/06/06,18:00,1.0,0.7,1.0,0.9,0.8,0.4,0.3,south-southwest,7.6,No
2013/06/06,18:10,1.0,0.7,1.0,0.9,0.8,0.4,0.3,south-southwest,9.0,No
2013/06/06,18:20,1.0,0.7,1.0,0.9,0.8,0.4,0.3,south-southwest,7.7,No
2013/06/06,18:30,1.0,0.7,1.0,0.9,0.8,0.4,0.3,south,7.3,No
2013/06/06,18:40,1.0,0.7,1.0,0.9,0.8,0.4,0.3,south-southwest,8.5,No
2013/06/06,18:50,1.0,0.7,1.0,0.9,0.8,0.4,0.3,south,8.6,No
2013/06/06,19:00,1.0,0.7,1.0,0.9,0.8,0.4,0.3,south-southwest,8.9,No
2013/06/06,19:10,1.0,0.7,1.0,0.9,0.8,0.4,0.3,south-southwest,9.2,No
2013/06/06,19:20,0.9,0.7,1.0,0.9,0.8,0.4,0.3,south-southwest,8.6,No
2013/06/06,19:30,0.9,0.7,1.0,0.9,0.8,0.4,0.3,south-southwest,8.9,No
2013/06/06,19:40,1.0,0.7,1.0,0.9,0.8,0.4,0.3,south-southwest,9.0,No
2013/06/06,19:50,1.0,0.7,1.0,0.9,0.8,0.4,0.3,south-southwest,8.9,No
2013/06/06,20:00,0.9,0.7,1.0,0.9,0.8,0.4,0.3,south-southwest,8.4,No
2013/06/06,20:10,0.9,0.7,1.0,0.9,0.8,0.4,0.3,south-southwest,9.2,No
2013/06/06,20:20,0.9,0.7,1.0,0.9,0.8,0.4,0.3,south-southwest,8.6,No
2013/06/06,20:30,1.0,0.7,1.0,0.9,0.8,0.4,0.3,south-southwest,9.5,No
2013/06/06,20:40,1.0,0.7,1.0,0.9,0.8,0.4,0.3,south-southwest,9.5,No
2013/06/06,20:50,0.9,0.7,1.0,0.9,0.8,0.4,0.3,south-southwest,9.5,No
2013/06/06,21:00,0.9,0.7,1.0,0.9,0.8,0.4,0.3,south-southwest,9.8,No
2013/06/06,21:10,0.9,0.7,1.0,0.9,0.8,0.4,0.3,south-southwest,8.6,No
2013/06/06,21:20,0.9,0.7,1.0,0.9,0.8,0.4,0.3,south-southwest,9.7,No
2013/06/06,21:30,0.9,0.7,1.0,0.9,0.8,0.4,0.3,south-southwest,8.9,No
2013/06/06,21:40,0.9,0.7,1.0,0.9,0.8,0.4,0.3,south-southwest,9.2,No
2013/06/06,21:50,0.9,0.7,1.0,0.9,0.8,0.4,0.3,south-southwest,9.2,No
2013/06/06,22:00,0.9,0.7,1.0,0.9,0.8,0.4,0.3,south-southwest,9.6,No
2013/06/06,22:10,0.9,0.7,1.0,0.9,0.8,0.4,0.3,south-southwest,9.5,No
2013/06/06,22:20,0.9,0.7,1.0,0.9,0.8,0.4,0.3,south-southwest,9.2,No
2013/06/06,22:30,0.9,0.7,1.0,0.9,0.8,0.4,0.3,south-southwest,8.7,No
2013/06/06,22:40,0.9,0.7,1.0,0.9,0.8,0.4,0.3,south-southwest,7.8,No
2013/06/06,22:50,0.9,0.7,1.0,0.9,0.8,0.4,0.3,south-southwest,9.2,No
2013/06/06,23:00,0.9,0.7,1.0,0.9,0.8,0.4,0.3,south-southwest,9.4,No
2013/06/06,23:10,0.9,0.7,1.0,0.9,0.8,0.4,0.3,south-southwest,8.4,No
2013/06/06,23:20,1.0,0.7,1.0,0.9,0.8,0.4,0.3,south-southwest,8.9,No
2013/06/06,23:30,0.9,0.7,1.0,0.9,0.8,0.4,0.3,south-southwest,7.3,No
2013/06/06,23:40,0.9,0.7,1.0,0.9,0.8,0.4,0.3,south-southwest,7.7,No
2013/06/06,23:50,0.9,0.7,1.0,0.9,0.8,0.4,0.3,south-southwest,6.8,No
